Location: Unspecified
(17.6330°N, 0.0000°E)
Time: 21:49:21
(UTC+00:00)

S-56A Canister/Altair - Pass Details

Date: 02 July 2019
Orbit: 633 x 2499 km, 38.9° (Epoch: 22 October)

Event Time Altitude Azimuth Distance (km) Brightness Sun altitude
Rises 07:47:00 0° 194° (SSW) 5,642 11.7 30.0°
Reaches altitude 10° 07:51:41 10° 180° (S) 4,863 11.5 31.0°
Maximum altitude 08:02:05 24° 133° (SE) 4,079 11.8 33.4°
Drops below altitude 10° 08:12:48 10° 87° (E) 5,083 13.0 35.9°
Sets 08:17:44 0° 75° (ENE) 5,952 13.0 37.0°
